EW9434 Weather Reports


time (UTC)temp
C
wind
direction
speed
KPH
gust
KPH
rain 1hr
cm
rain 24hr
cm
rain mn
cm
humidity
%
barometer
mb
20260902231747 33 161 6.4 16.1 0.00 0.00 0.00 56 1015.1
20260902231521 32 150 6.4 14.5 0.00 0.00 0.00 55 1013.3
20260902231247 33 142 4.8 16.1 0.00 0.00 0.00 55 1015.1
20260902230940 33 178 4.8 11.3 0.00 0.00 0.00 56 1015.2
20260902230441 33 184 4.8 11.3 0.00 0.00 0.00 55 1015.2
20260902230035 33 91 3.2 9.7 0.00 0.00 0.00 55 1013.5
20260902225647 33 192 6.4 16.1 0.00 0.00 0.00 54 1015.2
20260902225147 33 196 6.4 17.7 0.00 0.00 0.00 54 1015.2
20260902224638 33 205 4.8 16.1 0.00 0.00 0.00 54 1013.5
20260902224619 33 206 6.4 17.7 0.00 0.00 0.00 54 1015.2
20260902224120 33 112 6.4 14.5 0.00 0.00 0.00 53 1015.3
20260902223553 33 159 4.8 16.1 0.00 0.00 0.00 54 1015.2
20260902223051 33 196 4.8 16.1 0.00 0.00 0.00 54 1015.3
20260902223019 33 196 4.8 16.1 0.00 0.00 0.00 53 1013.5
20260902222523 34 226 6.4 14.5 0.00 0.00 0.00 53 1015.3
20260902222442 34 175 6.4 16.1 0.00 0.00 0.00 52 1015.3
20260902221617 33 120 6.4 16.1 0.00 0.00 0.00 52 1013.6
20260902221434 34 188 4.8 16.1 0.00 0.00 0.00 51 1015.4
20260902220934 34 201 4.8 16.1 0.00 0.00 0.00 52 1015.4
20260902220408 34 178 6.4 14.5 0.00 0.00 0.00 52 1015.4
20260902220014 34 176 4.8 14.5 0.00 0.00 0.00 51 1013.6
20260902215853 34 199 6.4 16.1 0.00 0.00 0.00 52 1015.4
20260902215352 34 178 6.4 16.1 0.00 0.00 0.00 52 1015.4
20260902214852 34 176 6.4 19.3 0.00 0.00 0.00 53 1015.4
20260902214539 34 101 4.8 19.3 0.00 0.00 0.00 51 1013.6
20260902214351 34 87 8.0 19.3 0.00 0.00 0.00 51 1015.4
20260902213831 35 195 4.8 16.1 0.00 0.00 0.00 51 1015.4
20260902213328 35 165 4.8 14.5 0.00 0.00 0.00 51 1015.4
20260902213015 34 164 3.2 19.3 0.00 0.00 0.00 51 1013.6
20260902212826 35 222 6.4 19.3 0.00 0.00 0.00 51 1015.4
20260902212312 35 192 6.4 17.7 0.00 0.00 0.00 50 1015.5
20260902211747 35 158 8.0 17.7 0.00 0.00 0.00 51 1015.5
20260902211542 34 151 8.0 20.9 0.00 0.00 0.00 50 1013.8
20260902211248 35 161 8.0 20.9 0.00 0.00 0.00 51 1015.5
20260902210721 35 162 6.4 19.3 0.00 0.00 0.00 52 1015.6
20260902210203 35 204 6.4 19.3 0.00 0.00 0.00 50 1015.5
20260902210109 35 214 3.2 12.9 0.00 0.00 0.00 51 1013.8
20260902205703 35 163 6.4 12.9 0.00 0.00 0.00 53 1015.6
20260902205146 35 225 8.0 17.7 0.00 0.00 0.00 51 1015.7
20260902204647 35 193 6.4 17.7 0.00 0.00 0.00 49 1015.6
20260902204623 35 178 6.4 16.1 0.00 0.00 0.00 51 1015.6
20260902204548 35 199 8.0 17.7 0.00 0.00 0.00 50 1013.9
20260902203629 35 188 6.4 17.7 0.00 0.00 0.00 51 1015.7
20260902203356 35 213 6.4 17.7 0.00 0.00 0.00 50 1015.7
20260902203101 35 214 8.0 17.7 0.00 0.00 0.00 50 1014.0
20260902202614 35 132 8.0 17.7 0.00 0.00 0.00 51 1015.7
20260902202055 35 90 6.4 17.7 0.00 0.00 0.00 51 1015.7
20260902201634 35 171 6.4 14.5 0.00 0.00 0.00 49 1014.0
20260902201600 35 140 6.4 16.1 0.00 0.00 0.00 49 1015.8
20260902201056 35 219 6.4 16.1 0.00 0.00 0.00 50 1015.8
20260902200533 35 98 4.8 19.3 0.00 0.00 0.00 49 1015.8
20260902200029 35 130 1.6 19.3 0.00 0.00 0.00 50 1014.2
20260902200027 35 130 6.4 19.3 0.00 0.00 0.00 50 1015.9
20260902195526 35 205 9.7 19.3 0.00 0.00 0.00 49 1015.9
20260902195026 35 213 8.0 19.3 0.00 0.00 0.00 50 1016.0
20260902194528 35 132 8.0 17.7 0.00 0.00 0.00 49 1016.1
20260902194010 35 151 8.0 17.7 0.00 0.00 0.00 50 1016.1
20260902193509 35 178 6.4 17.7 0.00 0.00 0.00 50 1016.1
20260902193026 34 103 4.8 17.7 0.00 0.00 0.00 50 1014.5
20260902192951 35 114 6.4 17.7 0.00 0.00 0.00 50 1016.2
20260902192430 34 205 6.4 16.1 0.00 0.00 0.00 53 1016.3
20260902191930 34 99 8.0 19.3 0.00 0.00 0.00 50 1016.3
20260902191513 34 142 6.4 17.7 0.00 0.00 0.00 51 1014.7
20260902191428 34 100 4.8 19.3 0.00 0.00 0.00 53 1016.4
20260902190929 34 152 4.8 14.5 0.00 0.00 0.00 51 1016.4
20260902190428 33 163 6.4 17.7 0.00 0.00 0.00 52 1016.5
20260902190005 34 113 8.0 16.1 0.00 0.00 0.00 51 1014.9
20260902185927 34 132 8.0 17.7 0.00 0.00 0.00 51 1016.6
20260902185426 34 181 8.0 17.7 0.00 0.00 0.00 50 1016.6
20260902184929 34 268 6.4 17.7 0.00 0.00 0.00 52 1016.6
20260902184554 34 200 6.4 17.7 0.00 0.00 0.00 51 1014.9
20260902184406 34 206 4.8 17.7 0.00 0.00 0.00 50 1016.6
20260902184105 34 188 8.0 19.3 0.00 0.00 0.00 50 1016.7
20260902183316 34 112 9.7 19.3 0.00 0.00 0.00 50 1016.8
20260902183046 33 130 11.3 19.3 0.00 0.00 0.00 50 1015.0
20260902182747 34 203 6.4 17.7 0.00 0.00 0.00 51 1016.8
20260902182223 33 150 4.8 16.1 0.00 0.00 0.00 52 1016.7
20260902181917 33 228 4.8 16.1 0.00 0.00 0.00 53 1017.0
20260902181620 33 203 4.8 16.1 0.00 0.00 0.00 53 1015.2
20260902181200 33 212 4.8 19.3 0.00 0.00 0.00 53 1017.0
20260902181113 33 166 6.4 19.3 0.00 0.00 0.00 52 1017.0
20260902180106 33 199 8.0 17.7 0.00 0.00 0.00 53 1017.1
20260902180057 33 215 3.2 16.1 0.00 0.00 0.00 53 1015.3
20260902175828 33 136 6.4 17.7 0.00 0.00 0.00 53 1017.1
20260902175105 33 193 6.4 17.7 0.00 0.00 0.00 57 1017.1
20260902174822 33 209 8.0 16.1 0.00 0.00 0.00 56 1017.2
20260902174540 32 135 4.8 17.7 0.00 0.00 0.00 56 1015.4
20260902174032 33 118 6.4 20.9 0.00 0.00 0.00 55 1017.4
20260902173743 33 148 6.4 16.1 0.00 0.00 0.00 57 1017.4
20260902173025 33 103 8.0 17.7 0.00 0.00 0.00 56 1017.5
20260902173010 33 122 6.4 17.7 0.00 0.00 0.00 56 1015.6
20260902172744 33 122 6.4 22.5 0.00 0.00 0.00 56 1017.4
20260902171954 33 185 6.4 22.5 0.00 0.00 0.00 57 1017.5
20260902171506 33 166 4.8 17.7 0.00 0.00 0.00 55 1015.7
20260902171428 33 123 6.4 17.7 0.00 0.00 0.00 55 1017.5
20260902170901 33 185 4.8 17.7 0.00 0.00 0.00 57 1017.5
20260902170347 33 195 9.7 17.7 0.00 0.00 0.00 58 1017.6
20260902170045 33 191 4.8 20.9 0.00 0.00 0.00 57 1015.8
20260902165811 33 217 9.7 20.9 0.00 0.00 0.00 56 1017.7
20260902165308 33 200 6.4 20.9 0.00 0.00 0.00 56 1017.7
20260902164802 33 162 4.8 16.1 0.00 0.00 0.00 55 1017.7
20260902164518 33 250 3.2 14.5 0.00 0.00 0.00 56 1016.0
20260902164234 33 166 6.4 14.5 0.00 0.00 0.00 58 1017.6
20260902163955 33 169 6.4 12.9 0.00 0.00 0.00 57 1017.8
20260902163207 33 188 6.4 12.9 0.00 0.00 0.00 57 1017.8
20260902163052 32 190 4.8 12.9 0.00 0.00 0.00 58 1016.0
20260902162923 32 125 6.4 14.5 0.00 0.00 0.00 58 1017.7
20260902162200 32 194 6.4 16.1 0.00 0.00 0.00 58 1017.7
20260902161637 32 130 4.8 16.1 0.00 0.00 0.00 59 1017.7
20260902161605 32 129 4.8 16.1 0.00 0.00 0.00 60 1016.0
20260902161106 32 226 4.8 12.9 0.00 0.00 0.00 61 1017.7
20260902160604 32 172 4.8 12.9 0.00 0.00 0.00 62 1017.8
20260902160039 32 189 4.8 11.3 0.00 0.00 0.00 61 1017.9
20260902160009 32 181 3.2 9.7 0.00 0.00 0.00 61 1016.2
20260902155510 32 184 4.8 11.3 0.00 0.00 0.00 62 1017.9
20260902154945 32 205 4.8 9.7 0.00 0.00 0.00 63 1018.0
20260902154600 31 140 3.2 12.9 0.00 0.00 0.00 63 1016.2
20260902154417 31 146 4.8 12.9 0.00 0.00 0.00 65 1018.0
20260902153916 31 130 6.4 12.9 0.00 0.00 0.00 64 1018.0
20260902153348 31 190 4.8 14.5 0.00 0.00 0.00 65 1018.1
20260902153012 31 111 1.6 14.5 0.00 0.00 0.00 65 1016.5
20260902152821 31 194 4.8 14.5 0.00 0.00 0.00 63 1018.1
20260902152256 31 181 4.8 14.5 0.00 0.00 0.00 65 1018.1
20260902151752 31 91 3.2 11.3 0.00 0.00 0.00 67 1018.2
20260902151555 31 137 4.8 11.3 0.00 0.00 0.00 65 1016.4
20260902151252 31 189 3.2 6.4 0.00 0.00 0.00 66 1018.2
20260902150744 31 118 3.2 9.7 0.00 0.00 0.00 68 1018.2
20260902150241 30 226 3.2 14.5 0.00 0.00 0.00 66 1018.2
20260902150016 30 203 4.8 14.5 0.00 0.00 0.00 67 1016.5
20260902145716 30 157 3.2 14.5 0.00 0.00 0.00 68 1018.2
20260902145216 30 201 4.8 14.5 0.00 0.00 0.00 68 1018.2
20260902144649 30 186 4.8 14.5 0.00 0.00 0.00 69 1018.2
20260902144523 30 124 4.8 14.5 0.00 0.00 0.00 69 1016.5
20260902144123 30 199 4.8 12.9 0.00 0.00 0.00 69 1018.2
20260902143619 30 190 4.8 12.9 0.00 0.00 0.00 70 1018.2
20260902143115 29 65 3.2 9.7 0.00 0.00 0.00 70 1018.2
20260902143052 29 66 1.6 8.0 0.00 0.00 0.00 71 1016.5
20260902142611 29 199 3.2 9.7 0.00 0.00 0.00 73 1018.2
20260902142110 29 199 4.8 14.5 0.00 0.00 0.00 71 1018.1
20260902141811 29 198 4.8 17.7 0.00 0.00 0.00 71 1018.1
20260902141522 28 198 4.8 17.7 0.00 0.00 0.00 71 1016.4
20260902141041 28 222 4.8 17.7 0.00 0.00 0.00 72 1018.1
20260902140758 28 213 3.2 11.3 0.00 0.00 0.00 71 1018.1
20260902140052 28 180 3.2 11.3 0.00 0.00 0.00 72 1016.4
20260902140014 28 188 3.2 11.3 0.00 0.00 0.00 73 1018.1
20260902135444 28 176 3.2 12.9 0.00 0.00 0.00 74 1018.1
20260902135207 28 186 3.2 12.9 0.00 0.00 0.00 74 1018.1
20260902134502 28 213 1.6 9.7 0.00 0.00 0.00 76 1016.5
20260902134419 28 169 3.2 8.0 0.00 0.00 0.00 76 1018.1
20260902133911 28 140 3.2 11.3 0.00 0.00 0.00 75 1018.1
20260902133411 27 152 3.2 11.3 0.00 0.00 0.00 75 1018.1
20260902133010 27 123 1.6 4.8 0.00 0.00 0.00 78 1016.4
20260902132842 27 122 3.2 6.4 0.00 0.00 0.00 76 1018.1
20260902132340 27 121 3.2 6.4 0.00 0.00 0.00 77 1018.0
20260902131813 27 121 3.2 6.4 0.00 0.00 0.00 78 1018.0
20260902131543 26 121 1.6 6.4 0.00 0.00 0.00 79 1016.3
20260902131246 27 121 3.2 6.4 0.00 0.00 0.00 80 1018.0
20260902130721 26 132 1.6 6.4 0.00 0.00 0.00 80 1018.0
20260902130152 26 132 1.6 6.4 0.00 0.00 0.00 82 1018.0
20260902130100 26 132 0.0 6.4 0.00 0.00 0.00 82 1016.3
20260902125651 26 132 1.6 4.8 0.00 0.00 0.00 82 1018.0
20260902125126 26 132 1.6 4.8 0.00 0.00 0.00 82 1018.1
20260902124815 26 132 1.6 4.8 0.00 0.00 0.00 83 1018.0
20260902124514 25 132 1.6 3.2 0.00 0.00 0.00 83 1016.3
20260902124056 25 132 1.6 4.8 0.00 0.00 0.00 83 1018.0
20260902123549 25 132 1.6 4.8 0.00 0.00 0.00 84 1017.9
20260902123048 25 132 1.6 4.8 0.00 0.00 0.00 84 1017.9
20260902123018 25 132 1.6 4.8 0.00 0.00 0.00 84 1016.2
20260902122740 25 132 1.6 4.8 0.00 0.00 0.00 85 1017.9
20260902122018 25 132 1.6 4.8 0.00 0.00 0.00 85 1017.8
20260902121538 24 273 0.0 3.2 0.00 0.00 0.00 86 1016.1
20260902121514 25 130 1.6 4.8 0.00 0.00 0.00 86 1017.8
20260902121012 25 273 1.6 4.8 0.00 0.00 0.00 86 1017.7
20260902120510 24 126 0.0 4.8 0.00 0.00 0.00 87 1017.8
20260902120109 24 273 0.0 4.8 0.00 0.00 0.00 87 1016.2
20260902115942 24 124 0.0 3.2 0.00 0.00 0.00 87 1017.8
20260902115439 24 124 0.0 3.2 0.00 0.00 0.00 87 1017.7
20260902114913 24 124 0.0 0.0 0.00 0.00 0.00 87 1017.7
20260902114538 24 124 0.0 0.0 0.00 0.00 0.00 87 1015.9
20260902114412 24 124 0.0 0.0 0.00 0.00 0.00 87 1017.6
20260902113908 24 124 0.0 0.0 0.00 0.00 0.00 87 1017.5
20260902113342 24 124 0.0 1.6 0.00 0.00 0.00 87 1017.5
20260902113006 24 273 0.0 1.6 0.00 0.00 0.00 87 1015.7
20260902112817 24 273 0.0 1.6 0.00 0.00 0.00 87 1017.4
20260902112248 24 273 0.0 3.2 0.00 0.00 0.00 87 1017.4
20260902111746 24 273 0.0 3.2 0.00 0.00 0.00 87 1017.3
20260902111507 24 122 0.0 3.2 0.00 0.00 0.00 87 1015.5
20260902111220 24 273 0.0 1.6 0.00 0.00 0.00 87 1017.3
20260902110720 24 273 0.0 1.6 0.00 0.00 0.00 87 1017.3
20260902110409 24 121 0.0 3.2 0.00 0.00 0.00 87 1017.3
20260902110059 24 121 0.0 1.6 0.00 0.00 0.00 87 1015.6
20260902105912 24 121 0.0 3.2 0.00 0.00 0.00 87 1017.3
20260902105416 24 121 0.0 3.2 0.00 0.00 0.00 87 1017.3
20260902104644 24 121 0.0 1.6 0.00 0.00 0.00 87 1017.3
20260902104504 24 120 0.0 1.6 0.00 0.00 0.00 87 1015.6
20260902104340 24 121 0.0 0.0 0.00 0.00 0.00 87 1017.3
20260902103824 24 273 0.0 3.2 0.00 0.00 0.00 87 1017.4
20260902103109 24 121 0.0 3.2 0.00 0.00 0.00 86 1015.6
20260902103048 24 121 0.0 3.2 0.00 0.00 0.00 86 1017.3
20260902102812 24 120 0.0 3.2 0.00 0.00 0.00 86 1017.3
20260902102307 24 118 0.0 3.2 0.00 0.00 0.00 86 1017.2
20260902101805 25 118 0.0 1.6 0.00 0.00 0.00 86 1017.3
20260902101521 24 118 0.0 1.6 0.00 0.00 0.00 86 1015.5
20260902101013 25 118 0.0 1.6 0.00 0.00 0.00 85 1017.3
20260902100509 25 118 0.0 1.6 0.00 0.00 0.00 85 1017.3
20260902100022 25 118 0.0 1.6 0.00 0.00 0.00 85 1015.4
20260902095941 25 118 0.0 1.6 0.00 0.00 0.00 85 1017.2
20260902095856 25 273 0.0 1.6 0.00 0.00 0.00 84 1017.2
20260902094851 25 118 0.0 3.2 0.00 0.00 0.00 84 1017.2
20260902094509 25 273 0.0 4.8 0.00 0.00 0.00 84 1015.4
20260902094341 25 118 0.0 4.8 0.00 0.00 0.00 84 1017.2
20260902093840 25 117 1.6 4.8 0.00 0.00 0.00 84 1017.2
20260902093314 25 118 0.0 3.2 0.00 0.00 0.00 83 1017.2
20260902093026 25 118 0.0 1.6 0.00 0.00 0.00 83 1015.4
20260902092747 25 118 0.0 1.6 0.00 0.00 0.00 83 1017.1
20260902092452 25 118 0.0 1.6 0.00 0.00 0.00 83 1017.2
20260902091932 25 118 0.0 1.6 0.00 0.00 0.00 83 1017.1
20260902091536 25 118 0.0 1.6 0.00 0.00 0.00 83 1015.3
20260902091144 25 118 0.0 3.2 0.00 0.00 0.00 83 1017.2
20260902090642 25 118 0.0 3.2 0.00 0.00 0.00 83 1017.1
20260902090138 25 118 0.0 3.2 0.00 0.00 0.00 83 1017.0
20260902090055 25 118 0.0 3.2 0.00 0.00 0.00 83 1015.2
20260902085639 25 118 0.0 3.2 0.00 0.00 0.00 82 1016.8
20260902085357 26 273 0.0 3.2 0.00 0.00 0.00 82 1016.8
20260902085115 25 118 0.0 3.2 0.00 0.00 0.00 82 1016.8
20260902084807 26 273 0.0 3.2 0.00 0.00 0.00 81 1016.6
20260902084554 25 273 0.0 3.2 0.00 0.00 0.00 81 1015.1
20260902083556 26 118 0.0 3.2 0.00 0.00 0.00 81 1016.5
20260902083315 26 118 1.6 3.2 0.00 0.00 0.00 80 1016.5
20260902083038 26 118 0.0 3.2 0.00 0.00 0.00 80 1014.8
20260902082527 26 118 0.0 4.8 0.00 0.00 0.00 80 1016.4
20260902082243 26 118 0.0 4.8 0.00 0.00 0.00 80 1016.4
20260902081617 26 118 0.0 4.8 0.00 0.00 0.00 80 1014.8
20260902081523 26 118 0.0 3.2 0.00 0.00 0.00 80 1016.5
20260902081009 26 273 0.0 4.8 0.00 0.00 0.00 80 1016.4
20260902080700 26 273 0.0 4.8 0.00 0.00 0.00 80 1016.4
20260902080109 26 273 0.0 4.8 0.00 0.00 0.00 79 1014.8
20260902075940 26 273 0.0 3.2 0.00 0.00 0.00 79 1016.4
20260902075441 26 273 0.0 3.2 0.00 0.00 0.00 79 1016.4
20260902074915 26 119 0.0 3.2 0.00 0.00 0.00 79 1016.3
20260902074538 26 273 0.0 4.8 0.00 0.00 0.00 78 1014.7
20260902074347 26 273 0.0 4.8 0.00 0.00 0.00 78 1016.3
20260902073822 26 120 0.0 3.2 0.00 0.00 0.00 78 1016.3
20260902073305 26 273 0.0 3.2 0.00 0.00 0.00 77 1016.4
20260902073100 26 273 0.0 1.6 0.00 0.00 0.00 77 1014.7
20260902072805 26 120 0.0 1.6 0.00 0.00 0.00 77 1016.4
20260902072244 26 121 0.0 3.2 0.00 0.00 0.00 77 1016.4
20260902071718 26 120 1.6 3.2 0.00 0.00 0.00 77 1016.3
20260902071516 26 121 0.0 3.2 0.00 0.00 0.00 77 1014.7
20260902071219 26 121 1.6 6.4 0.00 0.00 0.00 77 1016.3
20260902070709 26 121 1.6 6.4 0.00 0.00 0.00 77 1016.4
20260902070209 26 122 1.6 4.8 0.00 0.00 0.00 77 1016.3
20260902070024 26 122 1.6 4.8 0.00 0.00 0.00 77 1014.7
20260902065649 26 122 1.6 3.2 0.00 0.00 0.00 77 1016.4
20260902065147 26 122 1.6 4.8 0.00 0.00 0.00 77 1016.4
20260902064647 26 122 1.6 4.8 0.00 0.00 0.00 77 1016.4
20260902064523 26 121 1.6 4.8 0.00 0.00 0.00 77 1014.7
20260902064122 26 122 0.0 3.2 0.00 0.00 0.00 77 1016.4
20260902063603 26 273 0.0 3.2 0.00 0.00 0.00 77 1016.3
20260902063104 26 121 0.0 4.8 0.00 0.00 0.00 77 1016.3
20260902063050 26 122 0.0 4.8 0.00 0.00 0.00 77 1016.3
20260902063004 26 273 1.6 4.8 0.00 0.00 0.00 77 1014.6
20260902062104 27 122 0.0 4.8 0.00 0.00 0.00 77 1016.4
20260902061605 27 122 1.6 4.8 0.00 0.00 0.00 76 1016.4
20260902061544 26 122 0.0 4.8 0.00 0.00 0.00 76 1014.7
20260902061300 27 122 1.6 4.8 0.00 0.00 0.00 76 1016.3
20260902060518 27 122 1.6 4.8 0.00 0.00 0.00 76 1016.4
20260902060227 27 120 1.6 3.2 0.00 0.00 0.00 75 1016.4
20260902060106 27 120 1.6 4.8 0.00 0.00 0.00 75 1016.4
20260902060031 27 273 1.6 4.8 0.00 0.00 0.00 75 1014.7
20260902054955 27 119 1.6 3.2 0.00 0.00 0.00 75 1016.4
20260902054535 27 120 0.0 3.2 0.00 0.00 0.00 75 1014.7
20260902054457 27 120 1.6 3.2 0.00 0.00 0.00 75 1016.4
20260902053939 27 273 1.6 3.2 0.00 0.00 0.00 74 1016.4
20260902053639 27 120 1.6 3.2 0.00 0.00 0.00 74 1016.4
20260902053057 27 120 1.6 3.2 0.00 0.00 0.00 74 1014.8
20260902052907 27 120 1.6 3.2 0.00 0.00 0.00 74 1016.4
20260902052345 27 120 1.6 3.2 0.00 0.00 0.00 74 1016.4
20260902051815 27 120 1.6 4.8 0.00 0.00 0.00 74 1016.4
20260902051503 27 120 0.0 4.8 0.00 0.00 0.00 74 1014.8
20260902051316 27 120 1.6 4.8 0.00 0.00 0.00 74 1016.5
20260902050749 27 118 1.6 4.8 0.00 0.00 0.00 74 1016.5
20260902050446 27 273 0.0 3.2 0.00 0.00 0.00 73 1016.4
20260902050104 27 273 0.0 3.2 0.00 0.00 0.00 73 1014.8
20260902045701 27 273 0.0 3.2 0.00 0.00 0.00 73 1016.4
20260902045155 27 273 0.0 3.2 0.00 0.00 0.00 73 1016.4
20260902044653 28 273 0.0 3.2 0.00 0.00 0.00 73 1016.4
20260902044551 27 273 0.0 3.2 0.00 0.00 0.00 73 1014.8
20260902044153 28 273 1.6 3.2 0.00 0.00 0.00 72 1016.5
20260902043625 28 273 1.6 4.8 0.00 0.00 0.00 72 1016.4
20260902043326 28 117 1.6 6.4 0.00 0.00 0.00 71 1016.4
20260902043023 28 116 0.0 6.4 0.00 0.00 0.00 71 1014.8
20260902042611 28 115 1.6 6.4 0.00 0.00 0.00 71 1016.4
20260902042341 28 114 1.6 4.8 0.00 0.00 0.00 71 1016.5
20260902041546 28 114 1.6 4.8 0.00 0.00 0.00 71 1016.4
20260902041515 28 114 1.6 4.8 0.00 0.00 0.00 71 1014.8
20260902041020 28 114 1.6 4.8 0.00 0.00 0.00 71 1016.5
20260902040914 28 114 1.6 4.8 0.00 0.00 0.00 70 1016.5
20260902040538 28 114 1.6 3.2 0.00 0.00 0.00 70 1016.5
20260902040014 28 113 1.6 4.8 0.00 0.00 0.00 70 1014.9
20260902035418 28 114 1.6 4.8 0.00 0.00 0.00 70 1016.5
20260902034852 28 113 1.6 4.8 0.00 0.00 0.00 69 1016.5
20260902034541 28 109 1.6 6.4 0.00 0.00 0.00 69 1014.9
20260902034346 28 108 1.6 6.4 0.00 0.00 0.00 69 1016.5
20260902033822 28 126 1.6 4.8 0.00 0.00 0.00 69 1016.5
20260902033253 28 126 1.6 4.8 0.00 0.00 0.00 69 1016.5
20260902033102 28 126 1.6 4.8 0.00 0.00 0.00 68 1014.8
20260902032753 28 125 1.6 4.8 0.00 0.00 0.00 68 1016.4
20260902032246 29 124 1.6 4.8 0.00 0.00 0.00 68 1016.4
20260902031745 29 124 1.6 4.8 0.00 0.00 0.00 67 1016.4
20260902031604 28 124 0.0 4.8 0.00 0.00 0.00 67 1014.7
20260902031234 29 124 1.6 4.8 0.00 0.00 0.00 67 1016.4
20260902030735 29 124 1.6 4.8 0.00 0.00 0.00 67 1016.4
20260902030209 29 124 1.6 4.8 0.00 0.00 0.00 67 1016.4
20260902030029 29 124 1.6 4.8 0.00 0.00 0.00 66 1014.8
20260902025905 29 125 1.6 4.8 0.00 0.00 0.00 66 1016.4
20260902025358 29 126 1.6 4.8 0.00 0.00 0.00 66 1016.4
20260902024611 29 126 1.6 4.8 0.00 0.00 0.00 66 1016.4
20260902024522 29 127 0.0 4.8 0.00 0.00 0.00 65 1014.8
20260902024111 30 126 1.6 4.8 0.00 0.00 0.00 65 1016.4
20260902023541 30 124 1.6 6.4 0.00 0.00 0.00 65 1016.4
20260902023041 30 124 1.6 6.4 0.00 0.00 0.00 65 1016.4
20260902023009 29 124 1.6 6.4 0.00 0.00 0.00 65 1014.8
20260902022510 30 124 1.6 4.8 0.00 0.00 0.00 65 1016.4
20260902022233 30 124 3.2 4.8 0.00 0.00 0.00 64 1016.4
20260902021608 30 125 1.6 4.8 0.00 0.00 0.00 64 1014.8
20260902021442 30 125 1.6 4.8 0.00 0.00 0.00 64 1016.4
20260902020939 30 91 1.6 8.0 0.00 0.00 0.00 64 1016.4
20260902020638 30 87 3.2 8.0 0.00 0.00 0.00 64 1016.3
20260902020033 30 85 0.0 4.8 0.00 0.00 0.00 64 1014.7
20260902015905 30 84 1.6 6.4 0.00 0.00 0.00 64 1016.3
20260902015405 30 78 1.6 8.0 0.00 0.00 0.00 63 1016.2
20260902014859 30 77 1.6 8.0 0.00 0.00 0.00 63 1016.2
20260902014547 30 68 0.0 4.8 0.00 0.00 0.00 63 1014.6
20260902014359 30 68 1.6 4.8 0.00 0.00 0.00 63 1016.2
20260902013832 30 113 1.6 6.4 0.00 0.00 0.00 62 1016.2
20260902013325 30 114 3.2 6.4 0.00 0.00 0.00 61 1016.2
20260902013056 30 116 1.6 8.0 0.00 0.00 0.00 61 1014.6
20260902012822 30 142 3.2 8.0 0.00 0.00 0.00 61 1016.2
20260902012254 30 145 1.6 6.4 0.00 0.00 0.00 61 1016.1
20260902012017 30 149 1.6 4.8 0.00 0.00 0.00 61 1016.1
20260902011528 30 155 1.6 4.8 0.00 0.00 0.00 62 1014.4
20260902011224 30 156 1.6 3.2 0.00 0.00 0.00 61 1016.0
20260902010657 30 156 0.0 3.2 0.00 0.00 0.00 61 1016.0
20260902010131 30 156 0.0 3.2 0.00 0.00 0.00 61 1016.0
20260902010101 30 156 0.0 3.2 0.00 0.00 0.00 61 1014.3
20260902005603 30 156 0.0 3.2 0.00 0.00 0.00 61 1015.9
20260902005101 30 155 0.0 1.6 0.00 0.00 0.00 60 1015.9
20260902004537 30 156 0.0 3.2 0.00 0.00 0.00 60 1015.9
20260902004506 30 155 0.0 1.6 0.00 0.00 0.00 60 1014.2
20260902004228 31 156 0.0 4.8 0.00 0.00 0.00 60 1015.9
20260902003505 31 156 1.6 4.8 0.00 0.00 0.00 59 1015.8
20260902003202 31 154 1.6 4.8 0.00 0.00 0.00 59 1015.8
20260902003131 31 156 1.6 4.8 0.00 0.00 0.00 59 1014.2
20260902002414 31 153 1.6 6.4 0.00 0.00 0.00 58 1015.9
20260902001849 31 144 1.6 6.4 0.00 0.00 0.00 58 1015.9
20260902001514 31 153 1.6 6.4 0.00 0.00 0.00 58 1014.3
20260902001323 31 149 1.6 6.4 0.00 0.00 0.00 58 1015.9
20260902000757 31 203 1.6 6.4 0.00 0.00 0.00 57 1016.0
20260902000230 31 193 1.6 9.7 0.00 0.00 0.00 57 1016.0
20260902000221 31 203 1.6 9.7 0.00 0.00 0.00 56 1016.0
20260902000029 31 203 0.0 9.7 0.00 0.00 0.00 56 1014.4
20260901235206 32 212 1.6 8.0 0.00 0.00 0.00 55 1016.0
20260901234640 32 236 1.6 8.0 0.00 0.00 0.00 55 1016.0
20260901234548 32 236 3.2 8.0 0.00 0.00 0.00 55 1014.4
20260901234139 32 183 1.6 6.4 0.00 0.00 0.00 54 1016.1
20260901233616 32 182 3.2 8.0 0.00 0.00 0.00 53 1016.1
20260901233312 32 228 3.2 8.0 0.00 0.00 0.00 52 1016.1
20260901233106 32 215 1.6 6.4 0.00 0.00 0.00 52 1014.5
20260901232812 32 198 3.2 8.0 0.00 0.00 0.00 51 1016.1
20260901232026 32 76 3.2 11.3 0.00 0.00 0.00 52 1016.2